Mississippi River (Missouri), Thebes (07022000)

StateMissouriCurrentPotential (549000 cfs)
RiverMississippi RiverFlood - The river is flooding. Obstacles can be treacherous or deadly. The river should be avoided at this stage for casual trips and definitely for the inexperienced. Trips should be attempted only with protective gear and equipment.Flood(none)
Updated2019-10-14 3:00 (5 minutes ago)High - The river is high and potentially dangerous, especially for the young and / or inexperienced. Normal stream obstacles are sometimes difficult to navigate. Extended distances can be attempted, but canoe travel may not be advisable.High(none)
Discharge549000 cfs (median: 126000 cfs)Good - Conditions are ideal for a canoe or kayak. Boats typically will drag on fewer than one-quarter of riffles, if at all, and portages are unnecessary or rare. Normal float lengths can be attempted without a problem.Good(none)
Height33.9 feetLow - River is low but can still be floated. Some riffles are okay but most come with significant dragging and might need a portage. Float lengths should be reduced to accommodate low flow, dragging, and portages.Low(none)
TrendFalling (rising over 24 hours)Poor - River is too low to float comfortably. Most or all riffles will drag or must be portaged and some obstacles (such as slick shelf rock) cause undue problems. Avoid the river at this stage for casual paddling trips.Poor(none)
USGSExternal icon USGS Site for Thebes (07022000)LocationExternal icon Google Maps

Trending Data

Plot Image
ObservationHeightDischargeMaximum
Discharge
Minimum
Discharge
Mean
Discharge
P05P10P20P25P50
(Median)
P75P80P90P95
2019-10-14 03:00 33.90 549000 713000 (1987) 48900 (1940) 164000 61900 67000 78100 83900 126000 204000 238000 336000 379000
2019-10-14 02:30 33.89 551000 713000 (1987) 48900 (1940) 164000 61900 67000 78100 83900 126000 204000 238000 336000 379000
2019-10-14 02:00 33.89 549000 713000 (1987) 48900 (1940) 164000 61900 67000 78100 83900 126000 204000 238000 336000 379000
2019-10-14 01:30 33.91 549000 713000 (1987) 48900 (1940) 164000 61900 67000 78100 83900 126000 204000 238000 336000 379000
2019-10-14 01:00 33.90 550000 713000 (1987) 48900 (1940) 164000 61900 67000 78100 83900 126000 204000 238000 336000 379000
2019-10-14 00:30 33.90 549000 713000 (1987) 48900 (1940) 164000 61900 67000 78100 83900 126000 204000 238000 336000 379000
2019-10-14 00:00 33.90 548000 713000 (1987) 48900 (1940) 164000 61900 67000 78100 83900 126000 204000 238000 336000 379000
2019-10-13 23:30 33.89 549000 735000 (1987) 49800 (1940) 162000 64000 67500 78600 84800 123000 193000 243000 343000 374000
2019-10-13 23:00 33.88 548000 735000 (1987) 49800 (1940) 162000 64000 67500 78600 84800 123000 193000 243000 343000 374000
2019-10-13 22:30 33.89 550000 735000 (1987) 49800 (1940) 162000 64000 67500 78600 84800 123000 193000 243000 343000 374000
2019-10-13 22:00 33.89 546000 735000 (1987) 49800 (1940) 162000 64000 67500 78600 84800 123000 193000 243000 343000 374000
2019-10-13 21:30 33.88 549000 735000 (1987) 49800 (1940) 162000 64000 67500 78600 84800 123000 193000 243000 343000 374000
2019-10-13 21:00 33.85 550000 735000 (1987) 49800 (1940) 162000 64000 67500 78600 84800 123000 193000 243000 343000 374000
2019-10-13 20:30 33.84 548000 735000 (1987) 49800 (1940) 162000 64000 67500 78600 84800 123000 193000 243000 343000 374000
2019-10-13 20:00 33.86 547000 735000 (1987) 49800 (1940) 162000 64000 67500 78600 84800 123000 193000 243000 343000 374000
2019-10-13 19:30 33.87 548000 735000 (1987) 49800 (1940) 162000 64000 67500 78600 84800 123000 193000 243000 343000 374000
2019-10-13 19:00 33.84 549000 735000 (1987) 49800 (1940) 162000 64000 67500 78600 84800 123000 193000 243000 343000 374000
2019-10-13 18:30 33.85 548000 735000 (1987) 49800 (1940) 162000 64000 67500 78600 84800 123000 193000 243000 343000 374000
2019-10-13 18:00 33.85 546000 735000 (1987) 49800 (1940) 162000 64000 67500 78600 84800 123000 193000 243000 343000 374000
2019-10-13 17:30 33.84 546000 735000 (1987) 49800 (1940) 162000 64000 67500 78600 84800 123000 193000 243000 343000 374000
2019-10-13 17:00 33.81 547000 735000 (1987) 49800 (1940) 162000 64000 67500 78600 84800 123000 193000 243000 343000 374000
2019-10-13 16:30 33.80 547000 735000 (1987) 49800 (1940) 162000 64000 67500 78600 84800 123000 193000 243000 343000 374000
2019-10-13 16:00 33.82 546000 735000 (1987) 49800 (1940) 162000 64000 67500 78600 84800 123000 193000 243000 343000 374000
2019-10-13 15:30 33.84 547000 735000 (1987) 49800 (1940) 162000 64000 67500 78600 84800 123000 193000 243000 343000 374000
2019-10-13 15:00 33.83 544000 735000 (1987) 49800 (1940) 162000 64000 67500 78600 84800 123000 193000 243000 343000 374000
2019-10-13 14:30 33.82 542000 735000 (1987) 49800 (1940) 162000 64000 67500 78600 84800 123000 193000 243000 343000 374000
2019-10-13 14:00 33.82 544000 735000 (1987) 49800 (1940) 162000 64000 67500 78600 84800 123000 193000 243000 343000 374000
2019-10-13 13:30 33.80 545000 735000 (1987) 49800 (1940) 162000 64000 67500 78600 84800 123000 193000 243000 343000 374000
2019-10-13 13:00 33.79 545000 735000 (1987) 49800 (1940) 162000 64000 67500 78600 84800 123000 193000 243000 343000 374000
2019-10-13 12:30 33.81 545000 735000 (1987) 49800 (1940) 162000 64000 67500 78600 84800 123000 193000 243000 343000 374000
2019-10-13 12:00 33.81 545000 735000 (1987) 49800 (1940) 162000 64000 67500 78600 84800 123000 193000 243000 343000 374000
2019-10-13 11:30 33.83 544000 735000 (1987) 49800 (1940) 162000 64000 67500 78600 84800 123000 193000 243000 343000 374000
2019-10-13 11:00 33.81 544000 735000 (1987) 49800 (1940) 162000 64000 67500 78600 84800 123000 193000 243000 343000 374000
2019-10-13 10:30 33.78 545000 735000 (1987) 49800 (1940) 162000 64000 67500 78600 84800 123000 193000 243000 343000 374000
2019-10-13 10:00 33.81 543000 735000 (1987) 49800 (1940) 162000 64000 67500 78600 84800 123000 193000 243000 343000 374000
2019-10-13 09:30 33.79 544000 735000 (1987) 49800 (1940) 162000 64000 67500 78600 84800 123000 193000 243000 343000 374000
2019-10-13 09:00 33.79 544000 735000 (1987) 49800 (1940) 162000 64000 67500 78600 84800 123000 193000 243000 343000 374000
2019-10-13 08:30 33.77 546000 735000 (1987) 49800 (1940) 162000 64000 67500 78600 84800 123000 193000 243000 343000 374000
2019-10-13 08:00 33.78 543000 735000 (1987) 49800 (1940) 162000 64000 67500 78600 84800 123000 193000 243000 343000 374000
2019-10-13 07:30 33.77 545000 735000 (1987) 49800 (1940) 162000 64000 67500 78600 84800 123000 193000 243000 343000 374000
2019-10-13 07:00 33.77 546000 735000 (1987) 49800 (1940) 162000 64000 67500 78600 84800 123000 193000 243000 343000 374000
2019-10-13 06:30 33.72 545000 735000 (1987) 49800 (1940) 162000 64000 67500 78600 84800 123000 193000 243000 343000 374000
2019-10-13 06:00 33.73 544000 735000 (1987) 49800 (1940) 162000 64000 67500 78600 84800 123000 193000 243000 343000 374000
2019-10-13 05:30 33.73 545000 735000 (1987) 49800 (1940) 162000 64000 67500 78600 84800 123000 193000 243000 343000 374000
2019-10-13 05:00 33.75 543000 735000 (1987) 49800 (1940) 162000 64000 67500 78600 84800 123000 193000 243000 343000 374000
2019-10-13 04:30 33.76 543000 735000 (1987) 49800 (1940) 162000 64000 67500 78600 84800 123000 193000 243000 343000 374000
2019-10-13 04:00 33.74 544000 735000 (1987) 49800 (1940) 162000 64000 67500 78600 84800 123000 193000 243000 343000 374000
2019-10-13 03:30 33.72 545000 735000 (1987) 49800 (1940) 162000 64000 67500 78600 84800 123000 193000 243000 343000 374000
2019-10-13 03:00 33.73 542000 735000 (1987) 49800 (1940) 162000 64000 67500 78600 84800 123000 193000 243000 343000 374000
2019-10-13 02:30 33.72 542000 735000 (1987) 49800 (1940) 162000 64000 67500 78600 84800 123000 193000 243000 343000 374000
2019-10-13 02:00 33.71 543000 735000 (1987) 49800 (1940) 162000 64000 67500 78600 84800 123000 193000 243000 343000 374000
2019-10-13 01:30 33.70 543000 735000 (1987) 49800 (1940) 162000 64000 67500 78600 84800 123000 193000 243000 343000 374000
2019-10-13 01:00 33.69 541000 735000 (1987) 49800 (1940) 162000 64000 67500 78600 84800 123000 193000 243000 343000 374000
2019-10-13 00:30 33.70 541000 735000 (1987) 49800 (1940) 162000 64000 67500 78600 84800 123000 193000 243000 343000 374000
2019-10-13 00:00 33.71 543000 735000 (1987) 49800 (1940) 162000 64000 67500 78600 84800 123000 193000 243000 343000 374000
2019-10-12 23:30 33.67 542000 745000 (1987) 49200 (1940) 161000 65300 68500 80700 85700 127000 173000 219000 358000 413000
2019-10-12 23:00 33.67 542000 745000 (1987) 49200 (1940) 161000 65300 68500 80700 85700 127000 173000 219000 358000 413000
2019-10-12 22:30 33.69 541000 745000 (1987) 49200 (1940) 161000 65300 68500 80700 85700 127000 173000 219000 358000 413000
2019-10-12 22:00 33.67 542000 745000 (1987) 49200 (1940) 161000 65300 68500 80700 85700 127000 173000 219000 358000 413000
2019-10-12 21:30 33.65 541000 745000 (1987) 49200 (1940) 161000 65300 68500 80700 85700 127000 173000 219000 358000 413000
2019-10-12 21:00 33.65 542000 745000 (1987) 49200 (1940) 161000 65300 68500 80700 85700 127000 173000 219000 358000 413000
2019-10-12 20:30 33.67 541000 745000 (1987) 49200 (1940) 161000 65300 68500 80700 85700 127000 173000 219000 358000 413000
2019-10-12 20:00 33.76 539000 745000 (1987) 49200 (1940) 161000 65300 68500 80700 85700 127000 173000 219000 358000 413000
2019-10-12 19:30 33.76 540000 745000 (1987) 49200 (1940) 161000 65300 68500 80700 85700 127000 173000 219000 358000 413000
2019-10-12 19:00 33.74 540000 745000 (1987) 49200 (1940) 161000 65300 68500 80700 85700 127000 173000 219000 358000 413000
2019-10-12 18:30 33.74 539000 745000 (1987) 49200 (1940) 161000 65300 68500 80700 85700 127000 173000 219000 358000 413000
2019-10-12 18:00 33.66 540000 745000 (1987) 49200 (1940) 161000 65300 68500 80700 85700 127000 173000 219000 358000 413000
2019-10-12 17:30 33.64 540000 745000 (1987) 49200 (1940) 161000 65300 68500 80700 85700 127000 173000 219000 358000 413000
2019-10-12 17:00 33.65 539000 745000 (1987) 49200 (1940) 161000 65300 68500 80700 85700 127000 173000 219000 358000 413000
2019-10-12 16:30 33.64 539000 745000 (1987) 49200 (1940) 161000 65300 68500 80700 85700 127000 173000 219000 358000 413000
2019-10-12 16:00 33.63 540000 745000 (1987) 49200 (1940) 161000 65300 68500 80700 85700 127000 173000 219000 358000 413000
2019-10-12 15:30 33.62 540000 745000 (1987) 49200 (1940) 161000 65300 68500 80700 85700 127000 173000 219000 358000 413000
2019-10-12 15:00 33.63 539000 745000 (1987) 49200 (1940) 161000 65300 68500 80700 85700 127000 173000 219000 358000 413000
2019-10-12 14:30 33.63 538000 745000 (1987) 49200 (1940) 161000 65300 68500 80700 85700 127000 173000 219000 358000 413000
2019-10-12 14:00 33.62 539000 745000 (1987) 49200 (1940) 161000 65300 68500 80700 85700 127000 173000 219000 358000 413000
2019-10-12 13:30 33.63 538000 745000 (1987) 49200 (1940) 161000 65300 68500 80700 85700 127000 173000 219000 358000 413000
2019-10-12 13:00 33.62 537000 745000 (1987) 49200 (1940) 161000 65300 68500 80700 85700 127000 173000 219000 358000 413000
2019-10-12 12:30 33.61 537000 745000 (1987) 49200 (1940) 161000 65300 68500 80700 85700 127000 173000 219000 358000 413000
2019-10-12 12:00 33.59 540000 745000 (1987) 49200 (1940) 161000 65300 68500 80700 85700 127000 173000 219000 358000 413000
2019-10-12 11:30 33.59 538000 745000 (1987) 49200 (1940) 161000 65300 68500 80700 85700 127000 173000 219000 358000 413000
2019-10-12 11:00 33.58 539000 745000 (1987) 49200 (1940) 161000 65300 68500 80700 85700 127000 173000 219000 358000 413000
2019-10-12 10:30 33.61 539000 745000 (1987) 49200 (1940) 161000 65300 68500 80700 85700 127000 173000 219000 358000 413000
2019-10-12 10:00 33.58 539000 745000 (1987) 49200 (1940) 161000 65300 68500 80700 85700 127000 173000 219000 358000 413000
2019-10-12 09:30 33.60 540000 745000 (1987) 49200 (1940) 161000 65300 68500 80700 85700 127000 173000 219000 358000 413000
2019-10-12 09:00 33.57 538000 745000 (1987) 49200 (1940) 161000 65300 68500 80700 85700 127000 173000 219000 358000 413000
2019-10-12 08:30 33.57 539000 745000 (1987) 49200 (1940) 161000 65300 68500 80700 85700 127000 173000 219000 358000 413000
2019-10-12 08:00 33.56 539000 745000 (1987) 49200 (1940) 161000 65300 68500 80700 85700 127000 173000 219000 358000 413000
2019-10-12 07:30 33.53 540000 745000 (1987) 49200 (1940) 161000 65300 68500 80700 85700 127000 173000 219000 358000 413000
2019-10-12 07:00 33.55 539000 745000 (1987) 49200 (1940) 161000 65300 68500 80700 85700 127000 173000 219000 358000 413000
2019-10-12 06:30 33.54 537000 745000 (1987) 49200 (1940) 161000 65300 68500 80700 85700 127000 173000 219000 358000 413000
2019-10-12 06:00 33.53 540000 745000 (1987) 49200 (1940) 161000 65300 68500 80700 85700 127000 173000 219000 358000 413000
2019-10-12 05:30 33.52 539000 745000 (1987) 49200 (1940) 161000 65300 68500 80700 85700 127000 173000 219000 358000 413000
2019-10-12 05:00 33.55 538000 745000 (1987) 49200 (1940) 161000 65300 68500 80700 85700 127000 173000 219000 358000 413000
2019-10-12 04:30 33.54 539000 745000 (1987) 49200 (1940) 161000 65300 68500 80700 85700 127000 173000 219000 358000 413000
2019-10-12 04:00 33.53 538000 745000 (1987) 49200 (1940) 161000 65300 68500 80700 85700 127000 173000 219000 358000 413000
2019-10-12 03:30 33.52 537000 745000 (1987) 49200 (1940) 161000 65300 68500 80700 85700 127000 173000 219000 358000 413000
2019-10-12 03:00 33.55 538000 745000 (1987) 49200 (1940) 161000 65300 68500 80700 85700 127000 173000 219000 358000 413000
2019-10-12 02:30 33.54 538000 745000 (1987) 49200 (1940) 161000 65300 68500 80700 85700 127000 173000 219000 358000 413000
2019-10-12 02:00 33.53 538000 745000 (1987) 49200 (1940) 161000 65300 68500 80700 85700 127000 173000 219000 358000 413000
2019-10-12 01:30 33.55 537000 745000 (1987) 49200 (1940) 161000 65300 68500 80700 85700 127000 173000 219000 358000 413000
2019-10-12 01:00 33.50 538000 745000 (1987) 49200 (1940) 161000 65300 68500 80700 85700 127000 173000 219000 358000 413000
2019-10-12 00:30 33.49 537000 745000 (1987) 49200 (1940) 161000 65300 68500 80700 85700 127000 173000 219000 358000 413000
2019-10-12 00:00 33.49 537000 745000 (1987) 49200 (1940) 161000 65300 68500 80700 85700 127000 173000 219000 358000 413000
2019-10-11 23:30 33.48 538000 746000 (1987) 46100 (1940) 161000 66600 71100 81300 86100 127000 178000 206000 360000 418000
2019-10-11 23:00 33.51 537000 746000 (1987) 46100 (1940) 161000 66600 71100 81300 86100 127000 178000 206000 360000 418000
2019-10-11 22:30 33.52 539000 746000 (1987) 46100 (1940) 161000 66600 71100 81300 86100 127000 178000 206000 360000 418000
2019-10-11 22:00 33.53 537000 746000 (1987) 46100 (1940) 161000 66600 71100 81300 86100 127000 178000 206000 360000 418000
2019-10-11 21:30 33.56 535000 746000 (1987) 46100 (1940) 161000 66600 71100 81300 86100 127000 178000 206000 360000 418000
2019-10-11 21:00 33.60 534000 746000 (1987) 46100 (1940) 161000 66600 71100 81300 86100 127000 178000 206000 360000 418000
2019-10-11 20:30 33.59 535000 746000 (1987) 46100 (1940) 161000 66600 71100 81300 86100 127000 178000 206000 360000 418000
2019-10-11 20:00 33.57 534000 746000 (1987) 46100 (1940) 161000 66600 71100 81300 86100 127000 178000 206000 360000 418000
2019-10-11 19:30 33.56 536000 746000 (1987) 46100 (1940) 161000 66600 71100 81300 86100 127000 178000 206000 360000 418000
2019-10-11 19:00 33.56 535000 746000 (1987) 46100 (1940) 161000 66600 71100 81300 86100 127000 178000 206000 360000 418000
2019-10-11 18:30 33.49 535000 746000 (1987) 46100 (1940) 161000 66600 71100 81300 86100 127000 178000 206000 360000 418000
2019-10-11 18:00 33.49 535000 746000 (1987) 46100 (1940) 161000 66600 71100 81300 86100 127000 178000 206000 360000 418000
2019-10-11 17:30 33.51 534000 746000 (1987) 46100 (1940) 161000 66600 71100 81300 86100 127000 178000 206000 360000 418000
2019-10-11 17:00 33.48 535000 746000 (1987) 46100 (1940) 161000 66600 71100 81300 86100 127000 178000 206000 360000 418000
2019-10-11 16:30 33.48 535000 746000 (1987) 46100 (1940) 161000 66600 71100 81300 86100 127000 178000 206000 360000 418000
2019-10-11 16:00 33.46 535000 746000 (1987) 46100 (1940) 161000 66600 71100 81300 86100 127000 178000 206000 360000 418000
2019-10-11 15:30 33.48 534000 746000 (1987) 46100 (1940) 161000 66600 71100 81300 86100 127000 178000 206000 360000 418000
2019-10-11 15:00 33.49 533000 746000 (1987) 46100 (1940) 161000 66600 71100 81300 86100 127000 178000 206000 360000 418000
2019-10-11 14:30 33.47 533000 746000 (1987) 46100 (1940) 161000 66600 71100 81300 86100 127000 178000 206000 360000 418000
2019-10-11 14:00 33.48 534000 746000 (1987) 46100 (1940) 161000 66600 71100 81300 86100 127000 178000 206000 360000 418000
2019-10-11 13:30 33.54 533000 746000 (1987) 46100 (1940) 161000 66600 71100 81300 86100 127000 178000 206000 360000 418000
2019-10-11 13:00 33.49 533000 746000 (1987) 46100 (1940) 161000 66600 71100 81300 86100 127000 178000 206000 360000 418000
2019-10-11 12:30 33.46 533000 746000 (1987) 46100 (1940) 161000 66600 71100 81300 86100 127000 178000 206000 360000 418000
2019-10-11 12:00 33.46 533000 746000 (1987) 46100 (1940) 161000 66600 71100 81300 86100 127000 178000 206000 360000 418000
2019-10-11 11:30 33.46 534000 746000 (1987) 46100 (1940) 161000 66600 71100 81300 86100 127000 178000 206000 360000 418000
2019-10-11 11:00 33.44 534000 746000 (1987) 46100 (1940) 161000 66600 71100 81300 86100 127000 178000 206000 360000 418000
2019-10-11 10:30 33.50 533000 746000 (1987) 46100 (1940) 161000 66600 71100 81300 86100 127000 178000 206000 360000 418000
2019-10-11 10:00 33.50 531000 746000 (1987) 46100 (1940) 161000 66600 71100 81300 86100 127000 178000 206000 360000 418000
2019-10-11 09:30 33.44 532000 746000 (1987) 46100 (1940) 161000 66600 71100 81300 86100 127000 178000 206000 360000 418000
2019-10-11 09:00 33.49 531000 746000 (1987) 46100 (1940) 161000 66600 71100 81300 86100 127000 178000 206000 360000 418000
2019-10-11 08:30 33.51 529000 746000 (1987) 46100 (1940) 161000 66600 71100 81300 86100 127000 178000 206000 360000 418000
2019-10-11 08:00 33.41 529000 746000 (1987) 46100 (1940) 161000 66600 71100 81300 86100 127000 178000 206000 360000 418000
2019-10-11 07:30 33.35 530000 746000 (1987) 46100 (1940) 161000 66600 71100 81300 86100 127000 178000 206000 360000 418000
2019-10-11 07:00 33.33 531000 746000 (1987) 46100 (1940) 161000 66600 71100 81300 86100 127000 178000 206000 360000 418000
2019-10-11 06:30 33.31 530000 746000 (1987) 46100 (1940) 161000 66600 71100 81300 86100 127000 178000 206000 360000 418000
2019-10-11 06:00 33.33 529000 746000 (1987) 46100 (1940) 161000 66600 71100 81300 86100 127000 178000 206000 360000 418000
2019-10-11 05:30 33.31 530000 746000 (1987) 46100 (1940) 161000 66600 71100 81300 86100 127000 178000 206000 360000 418000
2019-10-11 05:00 33.32 528000 746000 (1987) 46100 (1940) 161000 66600 71100 81300 86100 127000 178000 206000 360000 418000
2019-10-11 04:30 33.32 530000 746000 (1987) 46100 (1940) 161000 66600 71100 81300 86100 127000 178000 206000 360000 418000
2019-10-11 04:00 33.32 528000 746000 (1987) 46100 (1940) 161000 66600 71100 81300 86100 127000 178000 206000 360000 418000
2019-10-11 03:30 33.31 530000 746000 (1987) 46100 (1940) 161000 66600 71100 81300 86100 127000 178000 206000 360000 418000
2019-10-11 03:00 33.29 530000 746000 (1987) 46100 (1940) 161000 66600 71100 81300 86100 127000 178000 206000 360000 418000
2019-10-11 02:30 33.27 530000 746000 (1987) 46100 (1940) 161000 66600 71100 81300 86100 127000 178000 206000 360000 418000
2019-10-11 02:00 33.29 528000 746000 (1987) 46100 (1940) 161000 66600 71100 81300 86100 127000 178000 206000 360000 418000
2019-10-11 01:30 33.26 527000 746000 (1987) 46100 (1940) 161000 66600 71100 81300 86100 127000 178000 206000 360000 418000
2019-10-11 01:00 33.27 527000 746000 (1987) 46100 (1940) 161000 66600 71100 81300 86100 127000 178000 206000 360000 418000
2019-10-11 00:30 33.26 527000 746000 (1987) 46100 (1940) 161000 66600 71100 81300 86100 127000 178000 206000 360000 418000
2019-10-11 00:00 33.26 527000 746000 (1987) 46100 (1940) 161000 66600 71100 81300 86100 127000 178000 206000 360000 418000
2019-10-10 23:30 33.26 528000 748000 (1987) 44300 (1940) 162000 67300 72100 81300 86800 127000 184000 210000 354000 419000
2019-10-10 23:00 33.26 528000 748000 (1987) 44300 (1940) 162000 67300 72100 81300 86800 127000 184000 210000 354000 419000
2019-10-10 22:30 33.26 528000 748000 (1987) 44300 (1940) 162000 67300 72100 81300 86800 127000 184000 210000 354000 419000
2019-10-10 22:00 33.26 526000 748000 (1987) 44300 (1940) 162000 67300 72100 81300 86800 127000 184000 210000 354000 419000
2019-10-10 21:30 33.26 527000 748000 (1987) 44300 (1940) 162000 67300 72100 81300 86800 127000 184000 210000 354000 419000
2019-10-10 21:00 33.26 527000 748000 (1987) 44300 (1940) 162000 67300 72100 81300 86800 127000 184000 210000 354000 419000
2019-10-10 20:30 33.28 526000 748000 (1987) 44300 (1940) 162000 67300 72100 81300 86800 127000 184000 210000 354000 419000
2019-10-10 20:00 33.24 526000 748000 (1987) 44300 (1940) 162000 67300 72100 81300 86800 127000 184000 210000 354000 419000
2019-10-10 19:30 33.23 527000 748000 (1987) 44300 (1940) 162000 67300 72100 81300 86800 127000 184000 210000 354000 419000
2019-10-10 19:00 33.19 527000 748000 (1987) 44300 (1940) 162000 67300 72100 81300 86800 127000 184000 210000 354000 419000
2019-10-10 18:30 33.24 525000 748000 (1987) 44300 (1940) 162000 67300 72100 81300 86800 127000 184000 210000 354000 419000
2019-10-10 18:00 33.20 526000 748000 (1987) 44300 (1940) 162000 67300 72100 81300 86800 127000 184000 210000 354000 419000
2019-10-10 17:30 33.24 525000 748000 (1987) 44300 (1940) 162000 67300 72100 81300 86800 127000 184000 210000 354000 419000
2019-10-10 17:00 33.20 526000 748000 (1987) 44300 (1940) 162000 67300 72100 81300 86800 127000 184000 210000 354000 419000
2019-10-10 16:30 33.24 525000 748000 (1987) 44300 (1940) 162000 67300 72100 81300 86800 127000 184000 210000 354000 419000
2019-10-10 16:00 33.21 525000 748000 (1987) 44300 (1940) 162000 67300 72100 81300 86800 127000 184000 210000 354000 419000
2019-10-10 15:30 33.22 524000 748000 (1987) 44300 (1940) 162000 67300 72100 81300 86800 127000 184000 210000 354000 419000
2019-10-10 15:00 33.21 523000 748000 (1987) 44300 (1940) 162000 67300 72100 81300 86800 127000 184000 210000 354000 419000
2019-10-10 14:30 33.22 524000 748000 (1987) 44300 (1940) 162000 67300 72100 81300 86800 127000 184000 210000 354000 419000
2019-10-10 14:00 33.21 524000 748000 (1987) 44300 (1940) 162000 67300 72100 81300 86800 127000 184000 210000 354000 419000
2019-10-10 13:30 33.21 524000 748000 (1987) 44300 (1940) 162000 67300 72100 81300 86800 127000 184000 210000 354000 419000
2019-10-10 13:00 33.18 523000 748000 (1987) 44300 (1940) 162000 67300 72100 81300 86800 127000 184000 210000 354000 419000
2019-10-10 12:30 33.17 524000 748000 (1987) 44300 (1940) 162000 67300 72100 81300 86800 127000 184000 210000 354000 419000
2019-10-10 12:00 33.19 522000 748000 (1987) 44300 (1940) 162000 67300 72100 81300 86800 127000 184000 210000 354000 419000
2019-10-10 11:30 33.19 523000 748000 (1987) 44300 (1940) 162000 67300 72100 81300 86800 127000 184000 210000 354000 419000
2019-10-10 11:00 33.18 523000 748000 (1987) 44300 (1940) 162000 67300 72100 81300 86800 127000 184000 210000 354000 419000
2019-10-10 10:30 33.16 523000 748000 (1987) 44300 (1940) 162000 67300 72100 81300 86800 127000 184000 210000 354000 419000
2019-10-10 10:00 33.14 525000 748000 (1987) 44300 (1940) 162000 67300 72100 81300 86800 127000 184000 210000 354000 419000
2019-10-10 09:30 33.15 524000 748000 (1987) 44300 (1940) 162000 67300 72100 81300 86800 127000 184000 210000 354000 419000
2019-10-10 09:00 33.13 524000 748000 (1987) 44300 (1940) 162000 67300 72100 81300 86800 127000 184000 210000 354000 419000
2019-10-10 08:30 33.18 523000 748000 (1987) 44300 (1940) 162000 67300 72100 81300 86800 127000 184000 210000 354000 419000
2019-10-10 08:00 33.14 524000 748000 (1987) 44300 (1940) 162000 67300 72100 81300 86800 127000 184000 210000 354000 419000
2019-10-10 07:30 33.17 522000 748000 (1987) 44300 (1940) 162000 67300 72100 81300 86800 127000 184000 210000 354000 419000
2019-10-10 07:00 33.17 522000 748000 (1987) 44300 (1940) 162000 67300 72100 81300 86800 127000 184000 210000 354000 419000
2019-10-10 06:30 33.15 522000 748000 (1987) 44300 (1940) 162000 67300 72100 81300 86800 127000 184000 210000 354000 419000
2019-10-10 06:00 33.14 524000 748000 (1987) 44300 (1940) 162000 67300 72100 81300 86800 127000 184000 210000 354000 419000
2019-10-10 05:30 33.16 522000 748000 (1987) 44300 (1940) 162000 67300 72100 81300 86800 127000 184000 210000 354000 419000
2019-10-10 05:00 33.13 522000 748000 (1987) 44300 (1940) 162000 67300 72100 81300 86800 127000 184000 210000 354000 419000
2019-10-10 04:30 33.11 523000 748000 (1987) 44300 (1940) 162000 67300 72100 81300 86800 127000 184000 210000 354000 419000
2019-10-10 04:00 33.12 522000 748000 (1987) 44300 (1940) 162000 67300 72100 81300 86800 127000 184000 210000 354000 419000
2019-10-10 03:30 33.09 521000 748000 (1987) 44300 (1940) 162000 67300 72100 81300 86800 127000 184000 210000 354000 419000
2019-10-10 03:00 33.06 523000 748000 (1987) 44300 (1940) 162000 67300 72100 81300 86800 127000 184000 210000 354000 419000
2019-10-10 02:30 33.09 521000 748000 (1987) 44300 (1940) 162000 67300 72100 81300 86800 127000 184000 210000 354000 419000
2019-10-10 02:00 33.07 520000 748000 (1987) 44300 (1940) 162000 67300 72100 81300 86800 127000 184000 210000 354000 419000
2019-10-10 01:30 33.06 523000 748000 (1987) 44300 (1940) 162000 67300 72100 81300 86800 127000 184000 210000 354000 419000
2019-10-10 01:00 33.06 521000 748000 (1987) 44300 (1940) 162000 67300 72100 81300 86800 127000 184000 210000 354000 419000
2019-10-10 00:30 33.05 523000 748000 (1987) 44300 (1940) 162000 67300 72100 81300 86800 127000 184000 210000 354000 419000
2019-10-10 00:00 33.12 522000 748000 (1987) 44300 (1940) 162000 67300 72100 81300 86800 127000 184000 210000 354000 419000
2019-10-09 23:30 33.08 522000 739000 (1987) 43500 (1940) 162000 67700 73400 86000 89500 127000 181000 212000 342000 432000
2019-10-09 23:00 33.06 521000 739000 (1987) 43500 (1940) 162000 67700 73400 86000 89500 127000 181000 212000 342000 432000
2019-10-09 22:30 33.07 522000 739000 (1987) 43500 (1940) 162000 67700 73400 86000 89500 127000 181000 212000 342000 432000
2019-10-09 22:00 33.05 523000 739000 (1987) 43500 (1940) 162000 67700 73400 86000 89500 127000 181000 212000 342000 432000
2019-10-09 21:30 33.07 520000 739000 (1987) 43500 (1940) 162000 67700 73400 86000 89500 127000 181000 212000 342000 432000
2019-10-09 21:00 33.06 522000 739000 (1987) 43500 (1940) 162000 67700 73400 86000 89500 127000 181000 212000 342000 432000
2019-10-09 20:30 33.06 522000 739000 (1987) 43500 (1940) 162000 67700 73400 86000 89500 127000 181000 212000 342000 432000
2019-10-09 20:00 33.05 521000 739000 (1987) 43500 (1940) 162000 67700 73400 86000 89500 127000 181000 212000 342000 432000
2019-10-09 19:30 33.09 519000 739000 (1987) 43500 (1940) 162000 67700 73400 86000 89500 127000 181000 212000 342000 432000
2019-10-09 19:00 33.04 520000 739000 (1987) 43500 (1940) 162000 67700 73400 86000 89500 127000 181000 212000 342000 432000
2019-10-09 18:30 33.06 519000 739000 (1987) 43500 (1940) 162000 67700 73400 86000 89500 127000 181000 212000 342000 432000
2019-10-09 18:00 33.03 521000 739000 (1987) 43500 (1940) 162000 67700 73400 86000 89500 127000 181000 212000 342000 432000
2019-10-09 17:30 33.03 522000 739000 (1987) 43500 (1940) 162000 67700 73400 86000 89500 127000 181000 212000 342000 432000
2019-10-09 17:00 33.05 521000 739000 (1987) 43500 (1940) 162000 67700 73400 86000 89500 127000 181000 212000 342000 432000
2019-10-09 16:30 33.03 521000 739000 (1987) 43500 (1940) 162000 67700 73400 86000 89500 127000 181000 212000 342000 432000
2019-10-09 16:00 33.04 521000 739000 (1987) 43500 (1940) 162000 67700 73400 86000 89500 127000 181000 212000 342000 432000
2019-10-09 15:30 33.04 519000 739000 (1987) 43500 (1940) 162000 67700 73400 86000 89500 127000 181000 212000 342000 432000
2019-10-09 15:00 33.06 517000 739000 (1987) 43500 (1940) 162000 67700 73400 86000 89500 127000 181000 212000 342000 432000
2019-10-09 14:30 33.05 518000 739000 (1987) 43500 (1940) 162000 67700 73400 86000 89500 127000 181000 212000 342000 432000
2019-10-09 14:00 33.01 520000 739000 (1987) 43500 (1940) 162000 67700 73400 86000 89500 127000 181000 212000 342000 432000
2019-10-09 13:30 33.01 519000 739000 (1987) 43500 (1940) 162000 67700 73400 86000 89500 127000 181000 212000 342000 432000
2019-10-09 13:00 33.04 519000 739000 (1987) 43500 (1940) 162000 67700 73400 86000 89500 127000 181000 212000 342000 432000
2019-10-09 12:30 33.01 519000 739000 (1987) 43500 (1940) 162000 67700 73400 86000 89500 127000 181000 212000 342000 432000
2019-10-09 12:00 33.05 519000 739000 (1987) 43500 (1940) 162000 67700 73400 86000 89500 127000 181000 212000 342000 432000
2019-10-09 11:30 33.14 519000 739000 (1987) 43500 (1940) 162000 67700 73400 86000 89500 127000 181000 212000 342000 432000
2019-10-09 11:00 33.13 519000 739000 (1987) 43500 (1940) 162000 67700 73400 86000 89500 127000 181000 212000 342000 432000
2019-10-09 10:30 33.14 520000 739000 (1987) 43500 (1940) 162000 67700 73400 86000 89500 127000 181000 212000 342000 432000
2019-10-09 10:00 33.15 518000 739000 (1987) 43500 (1940) 162000 67700 73400 86000 89500 127000 181000 212000 342000 432000
2019-10-09 09:30 33.08 520000 739000 (1987) 43500 (1940) 162000 67700 73400 86000 89500 127000 181000 212000 342000 432000
2019-10-09 09:00 33.07 520000 739000 (1987) 43500 (1940) 162000 67700 73400 86000 89500 127000 181000 212000 342000 432000
2019-10-09 08:30 33.46 517000 739000 (1987) 43500 (1940) 162000 67700 73400 86000 89500 127000 181000 212000 342000 432000
2019-10-09 08:00 33.04 518000 739000 (1987) 43500 (1940) 162000 67700 73400 86000 89500 127000 181000 212000 342000 432000
2019-10-09 07:30 32.99 519000 739000 (1987) 43500 (1940) 162000 67700 73400 86000 89500 127000 181000 212000 342000 432000
2019-10-09 07:00 32.98 522000 739000 (1987) 43500 (1940) 162000 67700 73400 86000 89500 127000 181000 212000 342000 432000
2019-10-09 06:30 32.95 524000 739000 (1987) 43500 (1940) 162000 67700 73400 86000 89500 127000 181000 212000 342000 432000
2019-10-09 06:00 33.02 521000 739000 (1987) 43500 (1940) 162000 67700 73400 86000 89500 127000 181000 212000 342000 432000
2019-10-09 05:30 33.03 521000 739000 (1987) 43500 (1940) 162000 67700 73400 86000 89500 127000 181000 212000 342000 432000
2019-10-09 05:00 33.00 520000 739000 (1987) 43500 (1940) 162000 67700 73400 86000 89500 127000 181000 212000 342000 432000
2019-10-09 04:30 33.00 522000 739000 (1987) 43500 (1940) 162000 67700 73400 86000 89500 127000 181000 212000 342000 432000
2019-10-09 04:00 32.96 522000 739000 (1987) 43500 (1940) 162000 67700 73400 86000 89500 127000 181000 212000 342000 432000
2019-10-09 03:30 32.99 521000 739000 (1987) 43500 (1940) 162000 67700 73400 86000 89500 127000 181000 212000 342000 432000
2019-10-09 03:00 32.99 520000 739000 (1987) 43500 (1940) 162000 67700 73400 86000 89500 127000 181000 212000 342000 432000
2019-10-09 02:30 32.99 523000 739000 (1987) 43500 (1940) 162000 67700 73400 86000 89500 127000 181000 212000 342000 432000
2019-10-09 02:00 32.96 522000 739000 (1987) 43500 (1940) 162000 67700 73400 86000 89500 127000 181000 212000 342000 432000
2019-10-09 01:30 32.97 521000 739000 (1987) 43500 (1940) 162000 67700 73400 86000 89500 127000 181000 212000 342000 432000
2019-10-09 01:00 32.98 522000 739000 (1987) 43500 (1940) 162000 67700 73400 86000 89500 127000 181000 212000 342000 432000
2019-10-09 00:30 32.97 521000 739000 (1987) 43500 (1940) 162000 67700 73400 86000 89500 127000 181000 212000 342000 432000
2019-10-09 00:00 32.95 521000 739000 (1987) 43500 (1940) 162000 67700 73400 86000 89500 127000 181000 212000 342000 432000
2019-10-08 23:30 32.99 521000 717000 (1987) 42700 (1940) 161000 69500 73200 86400 89400 130000 184000 205000 338000 412000
2019-10-08 23:00 32.98 520000 717000 (1987) 42700 (1940) 161000 69500 73200 86400 89400 130000 184000 205000 338000 412000
2019-10-08 22:30 32.98 520000 717000 (1987) 42700 (1940) 161000 69500 73200 86400 89400 130000 184000 205000 338000 412000
2019-10-08 22:00 32.99 520000 717000 (1987) 42700 (1940) 161000 69500 73200 86400 89400 130000 184000 205000 338000 412000
2019-10-08 21:30 32.96 521000 717000 (1987) 42700 (1940) 161000 69500 73200 86400 89400 130000 184000 205000 338000 412000
2019-10-08 21:00 32.96 521000 717000 (1987) 42700 (1940) 161000 69500 73200 86400 89400 130000 184000 205000 338000 412000
2019-10-08 20:30 32.96 521000 717000 (1987) 42700 (1940) 161000 69500 73200 86400 89400 130000 184000 205000 338000 412000
2019-10-08 20:00 32.96 520000 717000 (1987) 42700 (1940) 161000 69500 73200 86400 89400 130000 184000 205000 338000 412000
2019-10-08 19:30 32.98 521000 717000 (1987) 42700 (1940) 161000 69500 73200 86400 89400 130000 184000 205000 338000 412000
2019-10-08 19:00 32.97 521000 717000 (1987) 42700 (1940) 161000 69500 73200 86400 89400 130000 184000 205000 338000 412000
2019-10-08 18:30 32.96 520000 717000 (1987) 42700 (1940) 161000 69500 73200 86400 89400 130000 184000 205000 338000 412000
2019-10-08 18:00 32.95 519000 717000 (1987) 42700 (1940) 161000 69500 73200 86400 89400 130000 184000 205000 338000 412000
2019-10-08 17:30 32.93 520000 717000 (1987) 42700 (1940) 161000 69500 73200 86400 89400 130000 184000 205000 338000 412000
2019-10-08 17:00 32.96 520000 717000 (1987) 42700 (1940) 161000 69500 73200 86400 89400 130000 184000 205000 338000 412000
2019-10-08 16:30 32.95 520000 717000 (1987) 42700 (1940) 161000 69500 73200 86400 89400 130000 184000 205000 338000 412000
2019-10-08 16:00 32.93 519000 717000 (1987) 42700 (1940) 161000 69500 73200 86400 89400 130000 184000 205000 338000 412000
2019-10-08 15:30 32.95 519000 717000 (1987) 42700 (1940) 161000 69500 73200 86400 89400 130000 184000 205000 338000 412000
2019-10-08 15:00 32.94 518000 717000 (1987) 42700 (1940) 161000 69500 73200 86400 89400 130000 184000 205000 338000 412000
2019-10-08 14:30 32.94 519000 717000 (1987) 42700 (1940) 161000 69500 73200 86400 89400 130000 184000 205000 338000 412000
2019-10-08 14:00 32.93 519000 717000 (1987) 42700 (1940) 161000 69500 73200 86400 89400 130000 184000 205000 338000 412000
2019-10-08 13:30 32.93 518000 717000 (1987) 42700 (1940) 161000 69500 73200 86400 89400 130000 184000 205000 338000 412000
2019-10-08 13:00 32.90 520000 717000 (1987) 42700 (1940) 161000 69500 73200 86400 89400 130000 184000 205000 338000 412000
2019-10-08 12:30 32.90 519000 717000 (1987) 42700 (1940) 161000 69500 73200 86400 89400 130000 184000 205000 338000 412000
2019-10-08 12:00 32.92 518000 717000 (1987) 42700 (1940) 161000 69500 73200 86400 89400 130000 184000 205000 338000 412000
2019-10-08 11:30 32.94 518000 717000 (1987) 42700 (1940) 161000 69500 73200 86400 89400 130000 184000 205000 338000 412000
2019-10-08 11:00 14.62 717000 (1987) 42700 (1940) 161000 69500 73200 86400 89400 130000 184000 205000 338000 412000
2019-10-08 10:30 3.26 717000 (1987) 42700 (1940) 161000 69500 73200 86400 89400 130000 184000 205000 338000 412000
2019-10-08 10:00 4.03 717000 (1987) 42700 (1940) 161000 69500 73200 86400 89400 130000 184000 205000 338000 412000
2019-10-08 09:30 4.27 717000 (1987) 42700 (1940) 161000 69500 73200 86400 89400 130000 184000 205000 338000 412000
2019-10-08 09:00 4.17 717000 (1987) 42700 (1940) 161000 69500 73200 86400 89400 130000 184000 205000 338000 412000
2019-10-08 08:30 4.20 717000 (1987) 42700 (1940) 161000 69500 73200 86400 89400 130000 184000 205000 338000 412000
2019-10-08 08:00 3.93 717000 (1987) 42700 (1940) 161000 69500 73200 86400 89400 130000 184000 205000 338000 412000
2019-10-08 07:30 4.08 717000 (1987) 42700 (1940) 161000 69500 73200 86400 89400 130000 184000 205000 338000 412000
2019-10-08 07:00 4.20 717000 (1987) 42700 (1940) 161000 69500 73200 86400 89400 130000 184000 205000 338000 412000
2019-10-08 06:30 4.00 717000 (1987) 42700 (1940) 161000 69500 73200 86400 89400 130000 184000 205000 338000 412000
2019-10-08 06:00 4.03 717000 (1987) 42700 (1940) 161000 69500 73200 86400 89400 130000 184000 205000 338000 412000
2019-10-08 05:30 3.72 717000 (1987) 42700 (1940) 161000 69500 73200 86400 89400 130000 184000 205000 338000 412000
2019-10-08 05:00 4.04 717000 (1987) 42700 (1940) 161000 69500 73200 86400 89400 130000 184000 205000 338000 412000
2019-10-08 04:30 4.04 717000 (1987) 42700 (1940) 161000 69500 73200 86400 89400 130000 184000 205000 338000 412000
2019-10-08 04:00 4.18 717000 (1987) 42700 (1940) 161000 69500 73200 86400 89400 130000 184000 205000 338000 412000
2019-10-08 03:30 4.14 717000 (1987) 42700 (1940) 161000 69500 73200 86400 89400 130000 184000 205000 338000 412000
2019-10-08 03:00 4.15 717000 (1987) 42700 (1940) 161000 69500 73200 86400 89400 130000 184000 205000 338000 412000
2019-10-08 02:30 4.17 717000 (1987) 42700 (1940) 161000 69500 73200 86400 89400 130000 184000 205000 338000 412000
2019-10-08 02:00 4.10 717000 (1987) 42700 (1940) 161000 69500 73200 86400 89400 130000 184000 205000 338000 412000
2019-10-08 01:30 4.07 717000 (1987) 42700 (1940) 161000 69500 73200 86400 89400 130000 184000 205000 338000 412000
2019-10-08 01:00 4.05 717000 (1987) 42700 (1940) 161000 69500 73200 86400 89400 130000 184000 205000 338000 412000
2019-10-08 00:30 3.97 717000 (1987) 42700 (1940) 161000 69500 73200 86400 89400 130000 184000 205000 338000 412000
2019-10-08 00:00 4.20 717000 (1987) 42700 (1940) 161000 69500 73200 86400 89400 130000 184000 205000 338000 412000
2019-10-07 23:30 3.96 692000 (1987) 42700 (1940) 158000 68900 73400 84000 91200 126000 185000 204000 327000 370000
2019-10-07 23:00 4.01 692000 (1987) 42700 (1940) 158000 68900 73400 84000 91200 126000 185000 204000 327000 370000
2019-10-07 22:30 3.98 692000 (1987) 42700 (1940) 158000 68900 73400 84000 91200 126000 185000 204000 327000 370000
2019-10-07 22:00 3.88 692000 (1987) 42700 (1940) 158000 68900 73400 84000 91200 126000 185000 204000 327000 370000
2019-10-07 21:30 3.97 692000 (1987) 42700 (1940) 158000 68900 73400 84000 91200 126000 185000 204000 327000 370000
2019-10-07 21:00 3.85 692000 (1987) 42700 (1940) 158000 68900 73400 84000 91200 126000 185000 204000 327000 370000
2019-10-07 20:30 3.86 692000 (1987) 42700 (1940) 158000 68900 73400 84000 91200 126000 185000 204000 327000 370000
2019-10-07 20:00 4.18 692000 (1987) 42700 (1940) 158000 68900 73400 84000 91200 126000 185000 204000 327000 370000
2019-10-07 19:30 4.05 692000 (1987) 42700 (1940) 158000 68900 73400 84000 91200 126000 185000 204000 327000 370000
2019-10-07 19:00 3.96 692000 (1987) 42700 (1940) 158000 68900 73400 84000 91200 126000 185000 204000 327000 370000
2019-10-07 18:30 4.01 692000 (1987) 42700 (1940) 158000 68900 73400 84000 91200 126000 185000 204000 327000 370000
2019-10-07 18:00 4.12 692000 (1987) 42700 (1940) 158000 68900 73400 84000 91200 126000 185000 204000 327000 370000
2019-10-07 17:30 3.89 692000 (1987) 42700 (1940) 158000 68900 73400 84000 91200 126000 185000 204000 327000 370000
2019-10-07 17:00 3.81 692000 (1987) 42700 (1940) 158000 68900 73400 84000 91200 126000 185000 204000 327000 370000
2019-10-07 16:30 4.20 692000 (1987) 42700 (1940) 158000 68900 73400 84000 91200 126000 185000 204000 327000 370000
2019-10-07 16:00 3.58 692000 (1987) 42700 (1940) 158000 68900 73400 84000 91200 126000 185000 204000 327000 370000
2019-10-07 15:30 3.69 692000 (1987) 42700 (1940) 158000 68900 73400 84000 91200 126000 185000 204000 327000 370000
2019-10-07 15:00 4.31 692000 (1987) 42700 (1940) 158000 68900 73400 84000 91200 126000 185000 204000 327000 370000
2019-10-07 14:30 3.76 692000 (1987) 42700 (1940) 158000 68900 73400 84000 91200 126000 185000 204000 327000 370000
2019-10-07 14:00 3.63 692000 (1987) 42700 (1940) 158000 68900 73400 84000 91200 126000 185000 204000 327000 370000
2019-10-07 13:30 40.17 692000 (1987) 42700 (1940) 158000 68900 73400 84000 91200 126000 185000 204000 327000 370000
2019-10-07 13:00 40.22 692000 (1987) 42700 (1940) 158000 68900 73400 84000 91200 126000 185000 204000 327000 370000
2019-10-07 12:30 40.28 692000 (1987) 42700 (1940) 158000 68900 73400 84000 91200 126000 185000 204000 327000 370000
2019-10-07 12:00 39.79 692000 (1987) 42700 (1940) 158000 68900 73400 84000 91200 126000 185000 204000 327000 370000
2019-10-07 11:30 39.69 692000 (1987) 42700 (1940) 158000 68900 73400 84000 91200 126000 185000 204000 327000 370000
2019-10-07 11:00 39.48 692000 (1987) 42700 (1940) 158000 68900 73400 84000 91200 126000 185000 204000 327000 370000
2019-10-07 10:30 40.20 692000 (1987) 42700 (1940) 158000 68900 73400 84000 91200 126000 185000 204000 327000 370000
2019-10-07 10:00 38.22 263000 692000 (1987) 42700 (1940) 158000 68900 73400 84000 91200 126000 185000 204000 327000 370000
2019-10-07 09:30 39.41 692000 (1987) 42700 (1940) 158000 68900 73400 84000 91200 126000 185000 204000 327000 370000
2019-10-07 09:00 39.82 692000 (1987) 42700 (1940) 158000 68900 73400 84000 91200 126000 185000 204000 327000 370000
2019-10-07 08:30 39.49 692000 (1987) 42700 (1940) 158000 68900 73400 84000 91200 126000 185000 204000 327000 370000
2019-10-07 08:00 39.12 692000 (1987) 42700 (1940) 158000 68900 73400 84000 91200 126000 185000 204000 327000 370000
2019-10-07 07:30 39.61 692000 (1987) 42700 (1940) 158000 68900 73400 84000 91200 126000 185000 204000 327000 370000
2019-10-07 07:00 37.97 294000 692000 (1987) 42700 (1940) 158000 68900 73400 84000 91200 126000 185000 204000 327000 370000
2019-10-07 06:30 38.96 104000 692000 (1987) 42700 (1940) 158000 68900 73400 84000 91200 126000 185000 204000 327000 370000
2019-10-07 06:00 37.64 323000 692000 (1987) 42700 (1940) 158000 68900 73400 84000 91200 126000 185000 204000 327000 370000
2019-10-07 05:30 38.83 158000 692000 (1987) 42700 (1940) 158000 68900 73400 84000 91200 126000 185000 204000 327000 370000
2019-10-07 05:00 38.79 160000 692000 (1987) 42700 (1940) 158000 68900 73400 84000 91200 126000 185000 204000 327000 370000
2019-10-07 04:30 38.85 136000 692000 (1987) 42700 (1940) 158000 68900 73400 84000 91200 126000 185000 204000 327000 370000
2019-10-07 04:00 39.44 692000 (1987) 42700 (1940) 158000 68900 73400 84000 91200 126000 185000 204000 327000 370000
2019-10-07 03:30 38.93 89100 692000 (1987) 42700 (1940) 158000 68900 73400 84000 91200 126000 185000 204000 327000 370000
2019-10-07 03:00 39.40 692000 (1987) 42700 (1940) 158000 68900 73400 84000 91200 126000 185000 204000 327000 370000
2019-10-07 02:30 39.32 692000 (1987) 42700 (1940) 158000 68900 73400 84000 91200 126000 185000 204000 327000 370000
2019-10-07 02:00 39.01 692000 (1987) 42700 (1940) 158000 68900 73400 84000 91200 126000 185000 204000 327000 370000
2019-10-07 01:30 39.03 692000 (1987) 42700 (1940) 158000 68900 73400 84000 91200 126000 185000 204000 327000 370000
2019-10-07 01:00 37.68 320000 692000 (1987) 42700 (1940) 158000 68900 73400 84000 91200 126000 185000 204000 327000 370000
2019-10-07 00:30 38.46 222000 692000 (1987) 42700 (1940) 158000 68900 73400 84000 91200 126000 185000 204000 327000 370000
2019-10-07 00:00 37.39 340000 692000 (1987) 42700 (1940) 158000 68900 73400 84000 91200 126000 185000 204000 327000 370000

A total of 343 rows are displayed for years 1934 through 2019.

Trips for Mississippi River (Missouri), Thebes (07022000)

DateStartEndDistanceConditionDischargeHeightFishingDetails

A total of 0 rows are displayed.

Condition Descriptions

Fishing Conditions

Fish Species

Notes

Classic Trip List

The classic River Trips application is still available for use. It is updated with the new system using a data retrofit. It is no longer maintained. The original River Trips application is no longer updated (as of 1 Dec 2016) but can be checked for errors or for the condition of the data before it was converted to the new system.